Tracking 17925 objects as of 21-January-2017
HD Live streaming from Space Station
objects crossing your sky now

COSMOS 1626

Track COSMOS 1626 now!
10-day predictions
COSMOS 1626 is classified as:


NORAD ID: 15494
Int'l Code: 1985-009A
Perigee: 505.4 km
Apogee: 508.5 km
Inclination: 82.5 °
Period: 94.6 minutes
Semi major axis: 6877 km
RCS: 7.281 m2 (large)
Launch date: January 24, 1985
Source: Commonwealth of Independent States (former USSR) (CIS)
Launch site: PLESETSK MISSILE AND SPACE COMPLEX (PKMTR)
Your satellite tracking list
Your tracking list is empty





NASA's NSSDC Master Catalog

Two Line Element Set (TLE):
1 15494U 85009A   17021.14557203  .00000946  00000-0  39952-4 0  9994
2 15494  82.4784  36.7353 0002280 161.8008 263.0330 15.22041675746413
Source of the keplerian elements: AFSPC